Location: Elmsmere
(40.9284°N, 73.8207°W)
Time: 21:54:02
(UTC+00:00)

STARLINK-2715 - Pass Details

Date: 26 June 2021
Orbit: 348 x 351 km, 53.0° (Epoch: 31 July)

Event Time Altitude Azimuth Distance (km) Brightness Sun altitude
Exits shadow 08:49:19 - 274° (W) 1,915 6.0 -6.3°
Reaches altitude 10° 08:51:08 10° 292° (WNW) 1,313 5.3 -6.1°
Maximum altitude 08:53:10 17° 336° (NNW) 983 5.1 -5.8°
Drops below altitude 10° 08:55:13 10° 21° (NNE) 1,317 6.6 -5.5°
Sets 08:57:42 0° 43° (NE) 2,162 8.9 -5.1°
